Location: ???????
(52.3000°N, 54.4667°E)
Time: 19:08:45
(UTC+00:00)

SJ-11-01 - Pass Details

Date: 24 January 2020
Orbit: 683 x 702 km, 98.0° (Epoch: 28 February)

Event Time Altitude Azimuth Distance (km) Brightness Sun altitude
Exits shadow 15:01:07 33° 118° (ESE) 1,170 5.0 -19.2°
Maximum altitude 15:02:47 47° 68° (ENE) 921 4.5 -19.4°
Drops below altitude 10° 15:07:20 10° 355° (N) 2,166 6.8 -20.1°
Sets 15:09:38 0° 350° (N) 3,085 7.7 -20.5°
